Time,TemperatureF,DewpointF,PressureIn,WindDirection,WindDirectionDegrees,WindSpeedMPH,WindSpeedGustMPH,Humidity,HourlyPrecipIn,Conditions,Clouds,dailyrainin,SoftwareType,DateUTC
2013-04-19 00:02:00,45.7,35.8,30.00,NNE,22,5.8,-999.0,68,-99.99,,,0.00,Acu-Link.com,2013-04-19 05:02:00,
2013-04-19 00:17:00,45.0,35.5,30.01,NNE,22,6.8,-999.0,69,-99.99,,,0.00,Acu-Link.com,2013-04-19 05:17:00,
2013-04-19 00:33:00,45.1,35.5,30.01,NNW,337,9.9,-999.0,69,-99.99,,,0.00,Acu-Link.com,2013-04-19 05:33:00,
2013-04-19 00:48:00,45.5,35.6,30.01,NNE,22,7.8,-999.0,68,-99.99,,,0.00,Acu-Link.com,2013-04-19 05:48:00,
2013-04-19 01:03:00,44.4,35.2,30.01,NNW,337,5.3,-999.0,70,-99.99,,,0.00,Acu-Link.com,2013-04-19 06:03:00,
2013-04-19 01:18:00,44.2,35.0,30.01,NNE,22,9.9,-999.0,70,-99.99,,,0.00,Acu-Link.com,2013-04-19 06:18:00,
2013-04-19 01:33:00,44.1,35.0,30.01,NNE,22,5.8,-999.0,70,-99.99,,,0.00,Acu-Link.com,2013-04-19 06:33:00,
2013-04-19 01:48:00,43.5,34.4,30.01,NNW,337,4.2,-999.0,70,-99.99,,,0.00,Acu-Link.com,2013-04-19 06:48:00,
2013-04-19 02:03:00,43.5,34.4,30.02,NNE,22,4.2,-999.0,70,-99.99,,,0.00,Acu-Link.com,2013-04-19 07:03:00,
2013-04-19 02:19:00,43.5,34.4,30.01,NW,315,4.7,-999.0,70,-99.99,,,0.00,Acu-Link.com,2013-04-19 07:19:00,
2013-04-19 02:34:00,43.0,33.5,30.02,NNW,337,3.2,-999.0,69,-99.99,,,0.00,Acu-Link.com,2013-04-19 07:34:00,
2013-04-19 02:49:00,42.4,33.3,30.03,NNW,337,2.2,-999.0,70,-99.99,,,0.00,Acu-Link.com,2013-04-19 07:49:00,
2013-04-19 03:04:00,41.4,33.4,30.03,NNW,337,0.0,-999.0,73,-99.99,,,0.00,Acu-Link.com,2013-04-19 08:04:00,
2013-04-19 03:19:00,39.9,32.3,30.04,NNW,337,0.0,-999.0,74,-99.99,,,0.00,Acu-Link.com,2013-04-19 08:19:00,
2013-04-19 03:34:00,38.8,31.2,30.04,NNW,337,2.2,-999.0,74,-99.99,,,0.00,Acu-Link.com,2013-04-19 08:34:00,
2013-04-19 03:49:00,37.6,28.0,30.06,NNW,337,2.2,-999.0,68,-99.99,,,0.00,Acu-Link.com,2013-04-19 08:49:00,
2013-04-19 04:04:00,36.7,26.1,30.06,NNW,337,0.0,-999.0,65,-99.99,,,0.00,Acu-Link.com,2013-04-19 09:04:00,
2013-04-19 04:20:00,36.1,9.1,30.08,NNW,337,0.0,-999.0,32,-99.99,,,0.00,Acu-Link.com,2013-04-19 09:20:00,
2013-04-19 04:35:00,35.4,9.2,30.08,NNW,337,1.1,-999.0,33,-99.99,,,0.00,Acu-Link.com,2013-04-19 09:35:00,
2013-04-19 04:50:00,34.9,5.1,30.09,NNW,337,0.0,-999.0,28,-99.99,,,0.00,Acu-Link.com,2013-04-19 09:50:00,
2013-04-19 05:05:00,34.0,9.9,30.09,NNW,337,0.0,-999.0,36,-99.99,,,0.00,Acu-Link.com,2013-04-19 10:05:00,
2013-04-19 05:20:00,33.4,8.7,30.10,NNW,337,0.0,-999.0,35,-99.99,,,0.00,Acu-Link.com,2013-04-19 10:20:00,
2013-04-19 05:35:00,33.1,-0.6,30.10,NNW,337,0.0,-999.0,23,-99.99,,,0.00,Acu-Link.com,2013-04-19 10:35:00,
2013-04-19 05:50:00,33.1,-10.8,30.11,NNW,337,0.0,-999.0,14,-99.99,,,0.00,Acu-Link.com,2013-04-19 10:50:00,
2013-04-19 06:05:00,32.5,-9.9,30.11,NNW,337,0.0,-999.0,15,-99.99,,,0.00,Acu-Link.com,2013-04-19 11:05:00,
2013-04-19 06:20:00,33.1,-8.1,30.12,NNW,337,3.2,-999.0,16,-99.99,,,0.00,Acu-Link.com,2013-04-19 11:20:00,
2013-04-19 06:35:00,32.4,-10.0,30.12,NNW,337,0.0,-999.0,15,-99.99,,,0.00,Acu-Link.com,2013-04-19 11:35:00,
2013-04-19 06:51:00,31.8,-11.9,30.12,NNW,337,0.0,-999.0,14,-99.99,,,0.00,Acu-Link.com,2013-04-19 11:51:00,
2013-04-19 07:06:00,32.5,-9.9,30.13,NNW,337,0.0,-999.0,15,-99.99,,,0.00,Acu-Link.com,2013-04-19 12:06:00,
2013-04-19 07:21:00,34.7,-8.2,30.13,NNW,337,2.7,-999.0,15,-99.99,,,0.00,Acu-Link.com,2013-04-19 12:21:00,
2013-04-19 07:36:00,38.1,16.5,30.14,NNW,337,2.2,-999.0,41,-99.99,,,0.00,Acu-Link.com,2013-04-19 12:36:00,
2013-04-19 07:51:00,40.1,28.9,30.14,WNW,292,2.7,-999.0,64,-99.99,,,0.00,Acu-Link.com,2013-04-19 12:51:00,
2013-04-19 08:06:00,41.2,32.9,30.14,West,270,3.2,-999.0,72,-99.99,,,0.00,Acu-Link.com,2013-04-19 13:06:00,
2013-04-19 08:21:00,42.3,34.3,30.14,WNW,292,3.2,-999.0,73,-99.99,,,0.00,Acu-Link.com,2013-04-19 13:21:00,
2013-04-19 08:36:00,44.8,36.0,30.15,West,270,5.3,-999.0,71,-99.99,,,0.00,Acu-Link.com,2013-04-19 13:36:00,
2013-04-19 08:51:00,47.1,36.7,30.15,West,270,5.3,-999.0,67,-99.99,,,0.00,Acu-Link.com,2013-04-19 13:51:00,
2013-04-19 09:07:00,47.7,36.1,30.16,NW,315,7.8,-999.0,64,-99.99,,,0.00,Acu-Link.com,2013-04-19 14:07:00,
2013-04-19 09:22:00,49.3,36.0,30.16,NW,315,6.8,-999.0,60,-99.99,,,0.00,Acu-Link.com,2013-04-19 14:22:00,
2013-04-19 09:37:00,50.9,33.4,30.16,NW,315,6.3,-999.0,51,-99.99,,,0.00,Acu-Link.com,2013-04-19 14:37:00,
2013-04-19 09:52:00,51.4,32.4,30.16,NNW,337,9.4,-999.0,48,-99.99,,,0.00,Acu-Link.com,2013-04-19 14:52:00,
2013-04-19 10:07:00,53.6,33.9,30.16,NNW,337,9.9,-999.0,47,-99.99,,,0.00,Acu-Link.com,2013-04-19 15:07:00,
2013-04-19 10:22:00,52.7,29.7,30.17,NNW,337,10.9,-999.0,41,-99.99,,,0.00,Acu-Link.com,2013-04-19 15:22:00,
2013-04-19 10:37:00,53.8,29.4,30.17,NNE,22,11.4,-999.0,39,-99.99,,,0.00,Acu-Link.com,2013-04-19 15:37:00,
2013-04-19 10:52:00,54.1,29.1,30.17,NW,315,6.8,-999.0,38,-99.99,,,0.00,Acu-Link.com,2013-04-19 15:52:00,
2013-04-19 11:07:00,55.0,27.9,30.17,NNW,337,10.9,-999.0,35,-99.99,,,0.00,Acu-Link.com,2013-04-19 16:07:00,
2013-04-19 11:23:00,55.9,30.0,30.17,ENE,67,9.9,-999.0,37,-99.99,,,0.00,Acu-Link.com,2013-04-19 16:23:00,
2013-04-19 11:38:00,57.0,28.9,30.17,NNW,337,8.9,-999.0,34,-99.99,,,0.00,Acu-Link.com,2013-04-19 16:38:00,
2013-04-19 11:53:00,56.3,28.3,30.16,NNE,22,12.5,-999.0,34,-99.99,,,0.00,Acu-Link.com,2013-04-19 16:53:00,
2013-04-19 12:08:00,57.7,28.1,30.16,NNW,337,10.4,-999.0,32,-99.99,,,0.00,Acu-Link.com,2013-04-19 17:08:00,
2013-04-19 12:23:00,58.1,26.0,30.16,NNE,22,17.6,-999.0,29,-99.99,,,0.00,Acu-Link.com,2013-04-19 17:23:00,
2013-04-19 12:38:00,58.8,27.4,30.15,NE,45,8.3,-999.0,30,-99.99,,,0.00,Acu-Link.com,2013-04-19 17:38:00,
2013-04-19 12:53:00,60.1,30.9,30.15,North,0,5.8,-999.0,33,-99.99,,,0.00,Acu-Link.com,2013-04-19 17:53:00,
2013-04-19 13:08:00,59.7,27.4,30.14,NNW,337,10.4,-999.0,29,-99.99,,,0.00,Acu-Link.com,2013-04-19 18:08:00,
2013-04-19 13:24:00,60.4,28.8,30.13,NNW,337,10.4,-999.0,30,-99.99,,,0.00,Acu-Link.com,2013-04-19 18:24:00,
2013-04-19 13:39:00,61.2,27.8,30.13,NNW,337,6.8,-999.0,28,-99.99,,,0.00,Acu-Link.com,2013-04-19 18:39:00,
2013-04-19 13:54:00,62.1,27.7,30.12,NNW,337,8.3,-999.0,27,-99.99,,,0.00,Acu-Link.com,2013-04-19 18:54:00,
2013-04-19 14:09:00,63.0,29.4,30.11,North,0,8.9,-999.0,28,-99.99,,,0.00,Acu-Link.com,2013-04-19 19:09:00,
2013-04-19 14:24:00,63.7,29.1,30.11,NNW,337,7.3,-999.0,27,-99.99,,,0.00,Acu-Link.com,2013-04-19 19:24:00,
2013-04-19 14:39:00,64.0,27.5,30.11,NW,315,11.9,-999.0,25,-99.99,,,0.00,Acu-Link.com,2013-04-19 19:39:00,
2013-04-19 14:54:00,63.9,26.4,30.10,NW,315,9.9,-999.0,24,-99.99,,,0.00,Acu-Link.com,2013-04-19 19:54:00,
2013-04-19 15:09:00,64.8,26.1,30.09,North,0,5.8,-999.0,23,-99.99,,,0.00,Acu-Link.com,2013-04-19 20:09:00,
2013-04-19 15:24:00,64.6,23.8,30.08,NNW,337,8.3,-999.0,21,-99.99,,,0.00,Acu-Link.com,2013-04-19 20:24:00,
2013-04-19 15:40:00,64.6,26.0,30.07,WNW,292,6.8,-999.0,23,-99.99,,,0.00,Acu-Link.com,2013-04-19 20:40:00,
2013-04-19 15:55:00,64.6,22.6,30.07,North,0,4.7,-999.0,20,-99.99,,,0.00,Acu-Link.com,2013-04-19 20:55:00,
2013-04-19 16:10:00,65.5,23.4,30.06,NNW,337,6.8,-999.0,20,-99.99,,,0.00,Acu-Link.com,2013-04-19 21:10:00,
2013-04-19 16:25:00,65.8,24.8,30.05,NNE,22,9.4,-999.0,21,-99.99,,,0.00,Acu-Link.com,2013-04-19 21:25:00,
2013-04-19 16:40:00,66.2,24.0,30.05,NW,315,9.4,-999.0,20,-99.99,,,0.00,Acu-Link.com,2013-04-19 21:40:00,
2013-04-19 16:55:00,65.1,23.0,30.04,NNW,337,9.9,-999.0,20,-99.99,,,0.00,Acu-Link.com,2013-04-19 21:55:00,
2013-04-19 17:10:00,65.1,25.3,30.04,North,0,7.8,-999.0,22,-99.99,,,0.00,Acu-Link.com,2013-04-19 22:10:00,
2013-04-19 17:25:00,65.7,24.7,30.04,WNW,292,1.7,-999.0,21,-99.99,,,0.00,Acu-Link.com,2013-04-19 22:25:00,
2013-04-19 17:40:00,66.0,21.3,30.04,NNE,22,5.8,-999.0,18,-99.99,,,0.00,Acu-Link.com,2013-04-19 22:40:00,
2013-04-19 17:56:00,67.3,23.6,30.03,NNW,337,8.9,-999.0,19,-99.99,,,0.00,Acu-Link.com,2013-04-19 22:56:00,
2013-04-19 18:11:00,68.4,23.2,30.03,NW,315,7.3,-999.0,18,-99.99,,,0.00,Acu-Link.com,2013-04-19 23:11:00,
2013-04-19 18:26:00,69.1,25.1,30.03,NW,315,4.7,-999.0,19,-99.99,,,0.00,Acu-Link.com,2013-04-19 23:26:00,
2013-04-19 18:41:00,68.5,23.3,30.03,NW,315,5.3,-999.0,18,-99.99,,,0.00,Acu-Link.com,2013-04-19 23:41:00,
2013-04-19 18:56:00,66.4,21.6,30.03,North,0,4.7,-999.0,18,-99.99,,,0.00,Acu-Link.com,2013-04-19 23:56:00,
2013-04-19 19:11:00,66.9,25.7,30.02,NNW,337,2.7,-999.0,21,-99.99,,,0.00,Acu-Link.com,2013-04-20 00:11:00,
2013-04-19 19:26:00,66.6,23.1,30.03,NNW,337,1.7,-999.0,19,-99.99,,,0.00,Acu-Link.com,2013-04-20 00:26:00,
2013-04-19 19:41:00,64.2,33.7,30.03,NNW,337,0.0,-999.0,32,-99.99,,,0.00,Acu-Link.com,2013-04-20 00:41:00,
2013-04-19 19:56:00,58.8,35.8,30.03,NNW,337,2.2,-999.0,42,-99.99,,,0.00,Acu-Link.com,2013-04-20 00:56:00,
2013-04-19 20:12:00,52.0,37.7,30.03,NNW,337,2.7,-999.0,58,-99.99,,,0.00,Acu-Link.com,2013-04-20 01:12:00,
2013-04-19 20:27:00,50.2,38.1,30.03,NNW,337,2.2,-999.0,63,-99.99,,,0.00,Acu-Link.com,2013-04-20 01:27:00,
2013-04-19 20:42:00,48.4,38.0,30.04,NNW,337,0.0,-999.0,67,-99.99,,,0.00,Acu-Link.com,2013-04-20 01:42:00,
2013-04-19 20:57:00,46.8,37.5,30.04,NNW,337,2.2,-999.0,70,-99.99,,,0.00,Acu-Link.com,2013-04-20 01:57:00,
2013-04-19 21:12:00,45.3,36.8,30.04,NNW,337,0.0,-999.0,72,-99.99,,,0.00,Acu-Link.com,2013-04-20 02:12:00,
2013-04-19 21:27:00,44.2,36.1,30.06,NNW,337,0.0,-999.0,73,-99.99,,,0.00,Acu-Link.com,2013-04-20 02:27:00,
2013-04-19 21:42:00,43.7,35.6,30.06,NNW,337,0.0,-999.0,73,-99.99,,,0.00,Acu-Link.com,2013-04-20 02:42:00,
2013-04-19 21:57:00,42.4,34.4,30.06,NNW,337,0.0,-999.0,73,-99.99,,,0.00,Acu-Link.com,2013-04-20 02:57:00,
2013-04-19 22:12:00,41.7,33.7,30.06,NNW,337,0.0,-999.0,73,-99.99,,,0.00,Acu-Link.com,2013-04-20 03:12:00,
2013-04-19 22:28:00,41.2,32.5,30.07,NNW,337,0.0,-999.0,71,-99.99,,,0.00,Acu-Link.com,2013-04-20 03:28:00,
2013-04-19 22:43:00,40.5,30.8,30.07,NNW,337,0.0,-999.0,68,-99.99,,,0.00,Acu-Link.com,2013-04-20 03:43:00,
2013-04-19 22:58:00,40.1,29.7,30.07,NNW,337,0.0,-999.0,66,-99.99,,,0.00,Acu-Link.com,2013-04-20 03:58:00,
2013-04-19 23:13:00,39.9,28.3,30.07,NNW,337,0.0,-999.0,63,-99.99,,,0.00,Acu-Link.com,2013-04-20 04:13:00,
2013-04-19 23:28:00,39.4,20.9,30.08,NNW,337,0.0,-999.0,47,-99.99,,,0.00,Acu-Link.com,2013-04-20 04:28:00,
2013-04-19 23:43:00,38.8,21.8,30.08,NNW,337,0.0,-999.0,50,-99.99,,,0.00,Acu-Link.com,2013-04-20 04:43:00,
2013-04-19 23:58:00,38.5,13.9,30.08,NNW,337,0.0,-999.0,36,-99.99,,,0.00,Acu-Link.com,2013-04-20 04:58:00,